Location: Grand Rapids
(42.9630°N, 85.6680°W)
Time: 02:05:55
(UTC-04:00)

S-56A Canister/Altair - Pass Details

Date: 07 June 2024
Orbit: 637 x 2489 km, 38.9° (Epoch: 21 June)

Event Time Altitude Azimuth Distance (km) Brightness Sun altitude
Rises 06:07:54 0° 270° (W) 6,102 11.6 -0.2°
Reaches altitude 10° 06:11:51 10° 269° (W) 5,141 11.2 0.4°
Maximum altitude 06:26:55 73° 189° (S) 2,396 10.0 2.8°
Drops below altitude 10° 06:39:06 10° 108° (ESE) 4,250 12.1 4.7°
Sets 06:42:02 0° 106° (ESE) 5,029 12.5 5.2°
